Satellite-Ground Cal/Val Site Overpasses Predictions

Prediction of Satellite NPP Overpassing Cal/Val Site: Antarctic Dome C

Ground Cal/Val Site Location: Latitude: -75.10, Longitude: 123.35; Satellite-Ground Site NADIR distance within 100 km.

Table of predicted overpasses for the next 14.0 days since TLE Epoch: 7/10/2021
Interval Starting Time Ending Time Minimum Distance Time Minimum Distance (km)
1 07/10/2021 07:44:12 07/10/2021 07:44:32 07/10/2021 07:44:22 71.25
2 07/11/2021 07:25:20 07/11/2021 07:25:47 07/11/2021 07:25:34 36.51
3 07/13/2021 15:07:50 07/13/2021 15:07:55 07/13/2021 15:07:53 98.58
4 07/14/2021 14:48:48 07/14/2021 14:49:17 07/14/2021 14:49:03 12.76
5 07/16/2021 07:31:39 07/16/2021 07:32:08 07/16/2021 07:31:54 3.19
6 07/19/2021 14:55:09 07/19/2021 14:55:38 07/19/2021 14:55:23 24.13
7 07/20/2021 14:36:27 07/20/2021 14:36:42 07/20/2021 14:36:34 83.07
8 07/21/2021 07:38:00 07/21/2021 07:38:28 07/21/2021 07:38:14 36.60
